Flag for Dominican Republic Weather past 2 weeks in Punta Cana, Dominican Republic

Now
77 °F

Passing clouds.


Feels Like: 78 °F
Forecast: 80 / 88 °F
Wind: No wind

Location: Punta Cana

Current Time: Sep 20, 2014 at 6:33:27 AM

Latest Report: Sep 20, 2014 at 6:00 AM


Visibility: N/A

Pressure: 29.95 "Hg

Humidity: 94%

Dew point: 75 °F

Location of Punta CanaLocation

Historic Weather in Punta Cana — Graph

°F

Punta Cana temperature yesterday

Maximum temperature yesterday: 88 °F (at 2:00 PM)
Minimum temperature yesterday: 75 °F (at 9:00 PM)
Average temperature yesterday: 82 °F

Past Weeks' High & Low Weather Summary

 TemperatureHumidityPressure
High88 °F (Sep 6, 11:00 AM)100% (Sep 6, 1:00 AM)30.07 "Hg (Sep 6, 1:00 AM)
Low72 °F (Sep 6, 2:00 AM)62% (Sep 16, 5:00 PM)29.89 "Hg (Sep 17, 4:00 PM)
Average81 °F83%29.98 "Hg
* Reported Sep 5 5:00 AM — Sep 20 5:00 AM, Punta Cana, Weather by CustomWeather, © 2014

Note: Actual official high and low records may vary slightly from our data, if they occured in-between our weather recording intervals... More about our weather records

Advertising

Punta Cana weather history for previous 24 hours

 ConditionsComfort  
Time TempWeatherWind HumidityBarometerVisibility
5:00 AM
Sep 20
77 °FPassing clouds.No wind94%29.92 "HgN/A
4:00 AM75 °FPassing clouds.No wind94%29.92 "HgN/A
3:00 AM77 °FPassing clouds.No wind94%29.92 "HgN/A
2:00 AM79 °FPassing clouds.No wind89%29.95 "HgN/A
1:00 AM77 °FPartly cloudy.No wind94%29.95 "HgN/A
12:00 AM77 °FPassing clouds.No wind94%29.98 "HgN/A
11:00 PM
Sep 19
77 °FThundershowers. Passing clouds.No wind94%29.98 "HgN/A
10:00 PM77 °FThundershowers. Passing clouds.5 mph94%29.98 "Hg5 mi
9:00 PM75 °FThundershowers. Passing clouds.9 mph89%29.98 "Hg5 mi
8:00 PM81 °FPassing clouds.9 mph84%29.95 "HgN/A
7:00 PM81 °FPassing clouds.5 mph84%29.95 "HgN/A
6:00 PM82 °FScattered clouds.5 mph79%29.92 "HgN/A
5:00 PM84 °FScattered clouds.9 mph74%29.92 "HgN/A
4:00 PM84 °FPassing clouds.12 mph74%29.92 "HgN/A
3:00 PM86 °FPassing clouds.12 mph75%29.92 "HgN/A
2:00 PM88 °FPassing clouds.12 mph70%29.95 "HgN/A
1:00 PM86 °FPassing clouds.12 mph70%29.95 "HgN/A
12:00 PM86 °FPassing clouds.12 mph70%29.95 "HgN/A
11:00 AM86 °FPassing clouds.12 mph66%29.95 "HgN/A
10:00 AM84 °FPassing clouds.12 mph70%29.98 "HgN/A
9:00 AM82 °FPassing clouds.12 mph79%29.98 "HgN/A
8:00 AM81 °FScattered clouds.9 mph89%29.98 "HgN/A
7:00 AM79 °FSprinkles. Partly sunny.8 mph94%29.95 "Hg5 mi
6:00 AM81 °FPassing clouds.7 mph84%29.95 "HgN/A
Weather by CustomWeather, © 2014

See weather overviewHow to use our weather pages